Location: Unspecified
(35.6961°N, 0.0000°E)
Time: 12:07:09
(UTC+00:00)

Vanguard 2 Rocket - Visible Passes

Search period start: 15 October 2019 00:00
Search period end: 25 October 2019 00:00
Orbit: 554 x 3326 km, 32.9° (Epoch: 13 October)

Date Brightness Start Highest point End Pass type
(mag) Time Alt. Az. Time Alt. Az. Time Alt. Az.
15 Oct 9.8 17:47:47 10° W 17:55:18 19° SW 18:00:41 10° S visible
17 Oct 10.3 18:05:10 10° WSW 18:08:16 11° SW 18:10:59 10° SW visible
18 Oct 11.1 05:40:14 10° SSE 05:47:41 14° SE 05:56:05 10° ESE visible
21 Oct 10.9 04:54:32 10° SSE 05:00:23 13° SE 05:07:03 10° ESE visible
23 Oct 10.5 05:04:04 10° S 05:13:11 22° SE 05:25:00 10° E visible
24 Oct 10.7 04:09:47 10° SE 04:13:23 11° SE 04:17:24 10° ESE visible
